Content
SEND FEEDBACK

Daily
Averages
Monthly
Summary
United States of America

ROCK HILL - WINTHROP COLLEGE, SOUTH CAROLINA


Home > North America > United States > South Carolina
Elevation: 690 feet     Latitude: 34 56N     Longitude: 081 02W

WEATHER
 
SELECT A DAY
Number of Records: 169,470;   Date Range: 1/20/99 - 10/19/14
 
SHARE

PRINT THIS DATA

[ ← Previous Day ]
WEATHER ALMANAC - FEBRUARY 5, 2013
[ Next Day → ]
[ °C ]   °F
Weather ElementAverageHighLow
Temperature49 °F64.9 °F (2:54 pm)30.9 °F (5:54 am)
Dewpoint36 °F45 °F (9:54 pm)27 °F (1:54 am)
Humidity63 %86 % (11:54 pm)42 % (11:54 am)
Barometer29.96 in30.01 in (8:54 am)29.89 in (2:54 pm)
Wind Speed9.6 mph20.7 mph (2:54 pm)
Wind Gust27.6 mph (2:54 pm)
Weather ElementAverage
Visibility10 mi
Wind DirectionSW (223.6 °)

Weather ElementTotal
Precipitation---
Heating Degree Days17.1 (Base 65)
Averaged from 22 records on February 5, 2013
WEATHER CONDITIONS BREAKOUT
WIND DIRECTION BREAKOUT
WEATHER BY HOUR - FEBRUARY 5, 2013
[ °C ]   °F
Local TimeTemperatureDewpointHumidityBarometerVisibilityWind DirectionWind SpeedGust SpeedPrecipitationEventsConditions
1:54 AM36.0 °F27.0 °F70 %29.99 in10.0 miSW (230°)5.8 mphClear
2:54 AM37.0 °F28.9 °F73 %29.97 in10.0 miSW (220°)8.1 mphMostly Cloudy
3:54 AM39.0 °F28.0 °F65 %29.96 in10.0 miSW (230°)8.1 mphOvercast
4:54 AM36.0 °F28.0 °F73 %29.96 in10.0 miSW (220°)6.9 mphOvercast
5:54 AM30.9 °F27.0 °F85 %29.98 in10.0 miSW (220°)5.8 mphPartly Cloudy
6:54 AM35.1 °F28.9 °F78 %29.98 in10.0 miSSW (210°)6.9 mphOvercast
7:54 AM37.9 °F28.9 °F70 %30.00 in9.0 miSW (230°)6.9 mphScattered Clouds
8:54 AM43.0 °F30.0 °F60 %30.01 in10.0 miSW (230°)10.4 mphClear
9:54 AM50.0 °F30.0 °F46 %30.00 in10.0 miWSW (240°)16.1 mph23.0 mphMostly Cloudy
11:54 AM55.0 °F32.0 °F42 %29.98 in10.0 miWSW (240°)13.8 mph17.3 mphMostly Cloudy
12:54 PM59.0 °F36.0 °F42 %29.94 in10.0 miWest (260°)12.7 mph21.9 mphMostly Cloudy
1:54 PM62.1 °F39.9 °F44 %29.91 in10.0 miWSW (240°)18.4 mph24.2 mphScattered Clouds
2:54 PM64.9 °F41.0 °F42 %29.89 in10.0 miSW (230°)20.7 mph27.6 mphPartly Cloudy
3:54 PM64.0 °F41.0 °F43 %29.90 in10.0 miWest (260°)17.3 mph26.5 mphClear
4:54 PM63.0 °F42.1 °F46 %29.91 in10.0 miWSW (240°)11.5 mphClear
5:54 PM59.0 °F42.1 °F53 %29.93 in10.0 miSW (230°)11.5 mphClear
6:54 PM53.1 °F43.0 °F69 %29.95 in10.0 miSW (220°)6.9 mphClear
7:54 PM52.0 °F42.1 °F69 %29.96 in10.0 miWSW (240°)5.8 mphClear
8:54 PM52.0 °F44.1 °F74 %29.97 in10.0 miWSW (240°)5.8 mphClear
9:54 PM52.0 °F45.0 °F77 %29.98 in10.0 miWSW (240°)5.8 mphClear
10:54 PM50.0 °F44.1 °F80 %29.99 in10.0 miWSW (250°)6.9 mphClear
11:54 PM46.9 °F43.0 °F86 %29.99 in10.0 miCalmClear
Hourly data recorded from KUZA, located miles away from Rock Hill - Winthrop College, South Carolina







STORIES FROM OUR PARTNERS